Regional Weather Roundup
Issued by NWS

Home | Current Version | Previous Version | Graphics & Text | Print | Product List | Glossary Off
Versions: 1 2 3 4 5 6 7 8 9 10 11 12 13 14 15 16 17 18 19 20 21 22 23 24 25 26 27 28 29 30 31 32 33 34 35 36 37 38 39 40 41 42 43 44 45 46 47 48 49 50

000
ASUS43 KMKX 230500
RWRWI

WISCONSIN REGIONAL WEATHER ROUNDUP
NATIONAL WEATHER SERVICE MILWAUKEE/SULLIVAN WI
1100 PM CST WED NOV 22 2017

NOTE: "FAIR" INDICATES FEW OR NO CLOUDS BELOW 12,000 FEET WITH NO
SIGNIFICANT WEATHER AND/OR OBSTRUCTIONS TO VISIBILITY.

WIZ001-002-006>008-014>016-023>028-230600-
NORTHWEST WISCONSIN

CITY           SKY/WX    TMP DP  RH WIND       PRES   REMARKS
SUPERIOR ARPT  CLOUDY    24  21  89 CALM      30.00S
ASHLAND        CLOUDY    24  18  77 SW7       30.00S WCI  16
HAYWARD        CLOUDY    24  19  81 S8        29.98F WCI  15
SIREN          CLOUDY    26  19  77 S6        29.97F WCI  19
CUMBERLAND     CLOUDY    25  19  80 SE5       30.00R WCI  19
RICE LAKE      CLOUDY    26  20  79 SE3       30.03S
CHETEK         CLOUDY    26  19  77 SE5       30.02F WCI  20
LADYSMITH      CLOUDY    25  20  82 SE5       30.03F WCI  19
EAU CLAIRE     CLOUDY    28  18  66 SE5       30.02F WCI  23
MENOMONIE      CLOUDY    30  18  61 E6        30.01S WCI  24
NEW RICHMOND   CLOUDY    30  18  60 SE6       29.99F WCI  24
OSCEOLA        CLOUDY    30  20  66 SE6       30.01F WCI  24
$$

WIZ003>005-009-010-017-018-230600-
NORTH CENTRAL WISCONSIN

CITY           SKY/WX    TMP DP  RH WIND       PRES   REMARKS
MANITOWISH WTR LGT SNOW  21  21 100 SW6       29.97F WCI  13
ARBOR VITAE    FLURRIES  23  20  89 SW9       29.98F WCI  13
WOODRUFF       FLURRIES  23  20  89 SW9       29.98F WCI  13
RHINELANDER    LGT SNOW  22  20  92 SW9       30.00F FOG     WCI  12
EAGLE RIVER    CLOUDY    22  17  80 SW10      29.97F WCI  11
LAND O LAKES   CLOUDY    23  17  77 SW9       29.98F WCI  13
PHILLIPS       CLOUDY    21  20  95 S5        29.99F WCI  15
TOMAHAWK       LGT SNOW  22  19  91 CALM      30.03F
MEDFORD        CLOUDY    24  19  80 S9        30.02F WCI  14
MERRILL        CLOUDY    24  21  90 SW5       30.05F WCI  18
$$

WIZ029-030-035-036-043>047-230600-
CENTRAL WISCONSIN

CITY           SKY/WX    TMP DP  RH WIND       PRES   REMARKS
WAUSAU         CLOUDY    25  20  81 SW7       30.04F WCI  17
MOSINEE        NOT AVBL
MARSHFIELD     CLOUDY    27  17  66 SW7       30.03F WCI  19
STEVENS POINT  CLOUDY    24  21  89 S5        30.08F WCI  18
WAUPACA        CLOUDY    29  23  76 SW7       30.11F HAZE    WCI  22
WAUTOMA        FLURRIES  27  22  81 S3        30.11F
WISC RAPIDS    CLOUDY    29  17  61 SW8       30.09S WCI  21
CAMP DOUGLAS   CLOUDY    31  16  54 S5        30.07F WCI  26
$$

WIZ011>013-019>022-031-037>040-048>050-230600-
NORTHEAST WISCONSIN

CITY           SKY/WX    TMP DP  RH WIND       PRES   REMARKS
ANTIGO         CLOUDY    23  19  83 SW13      30.04S WCI  11
SHAWANO        CLOUDY    31  17  57 W10       30.08F WCI  22
OCONTO         CLOUDY    29  16  57 SW8       30.09F WCI  21
STURGEON BAY   MOCLDY    29  18  63 SW9       30.09F WCI  20
GREEN BAY      CLOUDY    30  21  69 SW10      30.10F WCI  21
MANITOWOC      FLURRIES  29  21  72 SW8       30.13F WCI  21
APPLETON       CLOUDY    27  19  74 SW13      30.09F WCI  16
CLINTONVILLE   CLOUDY    28  16  59 SW10      30.09S WCI  19
OSHKOSH        LGT SNOW  27  24  89 SW8       30.11F FOG     WCI  19
$$

WIZ032>034-041-042-053>061-230600-
SOUTHWEST WISCONSIN

CITY           SKY/WX    TMP DP  RH WIND       PRES   REMARKS
LA CROSSE      CLOUDY    34  18  52 S10       30.06F WCI  26
SPARTA         CLOUDY    31  17  57 S5        30.08F WCI  26
VIROQUA        CLOUDY    30  19  62 S7        30.05F WCI  23
BOSCOBEL       CLOUDY    34  16  47 S7        30.11F WCI  28
PRAIRIE DU CHI CLOUDY    33  15  46 CALM      30.10F
PLATTEVILLE    CLOUDY    32  21  64 S8        30.12F WCI  24
$$

WIZ056-057-062-063-064-067-068-230600-
SOUTH CENTRAL WISCONSIN

CITY           SKY/WX    TMP DP  RH WIND       PRES   REMARKS
REEDSBURG      CLOUDY    30  17  57 S8        30.09F WCI  23
BARABOO/DELLS  CLOUDY    30  16  55 S6        30.09F WCI  24
LONE ROCK      CLOUDY    32  18  56 S6        30.11F WCI  26
MINERAL POINT  CLOUDY    32  21  64 S8        30.10F WCI  25
MADISON        CLOUDY    31  17  56 SW12G20   30.12F WCI  22
MIDDLETON      CLOUDY    32  18  56 SW6       30.13S WCI  26
WATERTOWN      CLOUDY    30  19  62 SW7       30.14S WCI  23
MONROE         CLOUDY    30  19  64 S9        30.13S WCI  22
JANESVILLE     CLOUDY    32  19  59 SW8       30.15S WCI  25
$$

WIZ051-052-058>065-066-070>072-230600-
SOUTHEAST WISCONSIN

CITY           SKY/WX    TMP DP  RH WIND       PRES   REMARKS
MILWAUKEE      CLOUDY    32  19  58 SW8       30.15F WCI  25
WAUKESHA       CLOUDY    28  18  64 SW7       30.15S WCI  21
MILWAUKEE/TIMM CLOUDY    32  16  51 SW7       30.15S WCI  26
RACINE         CLOUDY    31  19  61 SW8       30.17F WCI  23
BURLINGTON     PTCLDY    32  25  75 SW5       30.15F WCI  27
KENOSHA        CLOUDY    32  18  56 SW7       30.16F WCI  26
FOND DU LAC    LGT SNOW  28  22  78 SW7       30.12F WCI  21
SHEBOYGAN      LGT SNOW  28  23  81 SW10      30.14R WCI  19
WEST BEND      CLOUDY    30  18  59 SW12      30.13S WCI  21
JUNEAU         CLOUDY    29  19  65 SW8       30.14S WCI  21
$$

LSZ147-162-230600-
LAKE SUPERIOR

STATION/POSITION TIME  TEMP    WIND        PRES    WAVE
                       AIR SEA DIR/SP/G            HT/PER
                 (UTC) (F)     (DEG/KT/KT) (MB)    (FT/S)
DEVILS ISLAND    0400   27     220/ 17/ 21 1016.5F
SAXON HARBOR     0430   26     200/  7/ 13 1015.6F
$$

LMZ867-665-643>646-230600-
LAKE MICHIGAN

STATION/POSITION TIME  TEMP    WIND        PRES    WAVE
                       AIR SEA DIR/SP/G            HT/PER
                 (UTC) (F)     (DEG/KT/KT) (MB)    (FT/S)
N MID LAKE BUOY  0350   33 47  220/ 17/ 21 1019.7F   3/ 4
NORTHPORT PIER   0440   29     220/  4/  7 1018.3F
KEWAUNEE LAKESHO 0430   30     230/  8/ 11 1019.0F
SHEBOYGAN LAKESH 0400   31     220/ 10/ 11 1021.4R
PORT WASHINGTON  0430   32     250/  5/ 10 1021.7S
MILWAUKEE LAKESH 0430   32     230/ 10/ 12   N/A
S MID LAKE BUOY  0350   35 47  250/ 16/ 17 1022.1F   2/ 3
KENOSHA   LAKESH 0400   31     240/  9/ 11 1021.7
$$

TC  - TEMPERATURE IN CELSIUS
VSB - VISIBILITY IN STATUTE MILES
WCI - WIND CHILL INDEX
HX  - HEAT INDEX





USA.gov is the U.S. government's official web portal to all federal, state and local government web resources and services.